Flag for Norway Weather past 2 weeks in Kvernaland, Norway

Now
51 °F

Sunny.


Feels Like: 51 °F
Forecast: 49 / 59 °F
Wind: 1 mph from East

Location: Stavanger / Sola

Current Time: Oct 2, 2014 at 11:27:53 AM

Latest Report: Oct 2, 2014 at 10:00 AM


Visibility: 9 mi

Pressure: 30.39 "Hg

Humidity: 96%

Dew point: 50 °F

Location of KvernalandLocation

Historic Weather in Kvernaland — Graph

°F

Kvernaland temperature yesterday

Maximum temperature yesterday: 60 °F (at 11:00 AM)
Minimum temperature yesterday: 53 °F (at 11:00 PM)
Average temperature yesterday: 58 °F

Past Weeks' High & Low Weather Summary

 TemperatureHumidityPressure
High70 °F (Sep 17, 2:00 PM)99% (Oct 2, 7:00 AM)30.39 "Hg (Oct 2, 7:00 AM)
Low43 °F (Sep 23, 3:00 AM)44% (Sep 17, 2:00 PM)29.67 "Hg (Sep 24, 10:00 PM)
Average55 °F78%30.02 "Hg
* Reported Sep 17 10:00 AM — Oct 2 10:00 AM, Kvernaland, Weather by CustomWeather, © 2014

Note: Actual official high and low records may vary slightly from our data, if they occured in-between our weather recording intervals... More about our weather records

Advertising

Kvernaland weather history for previous 24 hours

 ConditionsComfort  
Time TempWeatherWind HumidityBarometerVisibility
10:00 AM
Oct 2
51 °FSunny.1 mph96%30.39 "Hg9 mi
9:00 AM46 °FSunny.No wind98%30.37 "Hg7 mi
8:00 AM44 °FPassing clouds.1 mph98%30.37 "Hg9 mi
7:00 AM43 °FClear.1 mph99%30.35 "Hg0 mi
6:00 AM43 °FClear.No wind98%30.34 "Hg1 mi
5:00 AM45 °FClear.No wind98%30.33 "Hg0 mi
4:00 AM46 °FClear.No wind97%30.31 "Hg1 mi
3:00 AM47 °FClear.1 mph97%30.30 "Hg9 mi
2:00 AM49 °FFog.No wind96%30.30 "Hg1 mi
1:00 AM50 °FCool.1 mph93%30.28 "Hg12 mi
12:00 AM52 °FPassing clouds.2 mph93%30.26 "Hg12 mi
11:00 PM
Oct 1
53 °FPassing clouds.2 mph90%30.24 "Hg15 mi
10:00 PM54 °FOvercast.3 mph87%30.23 "Hg17 mi
9:00 PM54 °FLight rain. Overcast.7 mph89%30.20 "Hg16 mi
8:00 PM56 °FRain showers. Passing clouds.5 mph95%30.15 "Hg6 mi
7:00 PM57 °FRain. Overcast.6 mph95%30.13 "Hg2 mi
6:00 PM58 °FDrizzle. Overcast.7 mph94%30.10 "Hg5 mi
5:00 PM59 °FFog.7 mph92%30.11 "Hg3 mi
4:00 PM60 °FRain showers. Partly sunny.7 mph90%30.11 "Hg6 mi
3:00 PM60 °FOvercast.7 mph86%30.12 "Hg28 mi
2:00 PM60 °FLight rain. Overcast.8 mph86%30.12 "Hg17 mi
1:00 PM59 °FOvercast.8 mph84%30.13 "Hg9 mi
12:00 PM60 °FOvercast.8 mph79%30.13 "Hg31 mi
11:00 AM60 °FOvercast.8 mph73%30.13 "Hg31 mi
Weather by CustomWeather, © 2014

See weather overviewHow to use our weather pages